Stations météo

Publicité
Agen, France (7524): Température de l'air & dewpoint: 09.11.2019 16:00:00 - 15.11.2019 16:00:00 (CET)Agen, France (7524): Température de l'air 5cm: 09.11.2019 16:00:00 - 15.11.2019 16:00:00 (CET)Agen, France (7524): Température de l'air -20cm & Température de l'air -100cm: 09.11.2019 16:00:00 - 15.11.2019 16:00:00 (CET)Agen, France (7524): Vitesse du vent & gusts: 09.11.2019 16:00:00 - 15.11.2019 16:00:00 (CET)Agen, France (7524): Direction du vent: 09.11.2019 16:00:00 - 15.11.2019 16:00:00 (CET)Agen, France (7524): reduced air pressure: 09.11.2019 16:00:00 - 15.11.2019 16:00:00 (CET)Agen, France (7524): visibility: 09.11.2019 16:00:00 - 15.11.2019 16:00:00 (CET)Agen, France (7524): Ensoleillement: 09.11.2019 16:00:00 - 15.11.2019 16:00:00 (CET)Agen, France (7524): Quantités de précipitations: 09.11.2019 16:00:00 - 15.11.2019 16:00:00 (CET)
Date & Time tt [°C] td [°C] tt 5cm [°C] tt -20cm [°C] tt -100cm [°C] ff [km/h] ff [knt] fx [km/h] fx [knt] dd ppp [hPa] vv [km] sd [min] rr [mm]
15.11.2019 16:00:00 5,0 4,4 5,4 10,4 14,3 10 6 15 8 NNW 1002,2 6 0 1,2
15.11.2019 15:00:00 5,4 4,8 6,4 10,4 14,3 8 4 13 7 NNE 1001,5 8 0 0,6
15.11.2019 14:00:00 5,4 4,8 7,1 10,5 14,3 8 4 14 7 N 1001,0 17 0 0,4
15.11.2019 13:00:00 5,0 4,4 5,2 10,5 14,3 8 4 19 10 N 1000,6 15 0 0,6
15.11.2019 12:00:00 4,1 3,5 4,0 10,6 14,3 6 3 11 6 ENE 1001,0 6 0 2,0
15.11.2019 11:00:00 3,6 3,0 3,1 10,7 14,3 8 4 14 8 NE 1000,9 4,0 0 5,5
15.11.2019 10:00:00 3,6 3,0 3,5 10,7 14,3 6 3 19 10 ESE 1000,5 1,9 0 4,2
15.11.2019 09:00:00 3,3 2,7 2,7 10,8 14,3 12 7 22 12 SE 1000,1 6 0 0,4
15.11.2019 08:00:00 2,7 2,1 1,6 10,8 14,3 12 7 17 9 ESE 999,5 5 0 0,0
15.11.2019 07:00:00 2,4 1,7 0,4 10,9 14,4 10 5 16 8 E 999,2 8 0 0,0
15.11.2019 06:00:00 1,6 0,9 -0,5 11,0 14,3 9 5 21 12 E 999,3 1,5 0 0,0
15.11.2019 05:00:00 1,3 0,4 -2,1 11,0 14,3 9 5 16 9 E 999,1 2,8 0 0,0
15.11.2019 04:00:00 0,8 -0,1 -2,3 11,1 14,3 9 5 11 6 ESE 999,2 0,7 0 0,0
15.11.2019 03:00:00 2,2 1,3 -2,7 11,1 14,4 8 4 10 5 ESE 999,4 12 0 0,0
15.11.2019 02:00:00 2,2 1,2 -2,4 11,2 14,4 2 1 10 6 W 999,1 20 0 0,0
15.11.2019 01:00:00 2,5 1,3 -2,0 11,3 14,4 3 2 12 6 ENE 999,0 23 0 0,0
15.11.2019 00:00:00 2,9 1,6 -1,9 11,3 14,3 3 1 9 5 W 998,9 20 0 0,0
14.11.2019 23:00:00 3,1 1,5 -1,7 11,3 14,4 3 2 8 4 S 999,0 34 0 0,0
14.11.2019 22:00:00 4,3 2,5 -0,8 11,4 14,4 3 1 9 5 WSW 998,6 60 0 0,0
14.11.2019 21:00:00 4,9 2,8 0,1 11,4 14,4 3 2 13 7 S 998,5 60 0 0,0
14.11.2019 20:00:00 5,6 3,3 1,0 11,4 14,4 5 3 8 4 S 998,5 60 0 0,0
14.11.2019 19:00:00 6,0 2,8 2,5 11,4 14,4 5 3 11 6 WSW 998,3 60 0 0,0
14.11.2019 18:00:00 6,9 3,3 3,9 11,4 14,4 4 2 21 11 SSW 998,1 60 0 0,0
14.11.2019 17:00:00 7,8 3,8 7,6 11,4 14,4 6 4 27 15 SW 998,2 60 0 0,0
14.11.2019 16:00:00 8,7 3,7 9,3 11,4 14,4 16 9 34 18 WSW 998,0 42 17 0,0
14.11.2019 15:00:00 9,1 3,1 11,0 11,4 14,4 19 10 37 20 WSW 998,2 34 47 0,0
14.11.2019 14:00:00 10,2 5,0 15,3 11,4 14,4 14 8 28 15 WSW 998,4 29 53 0,0
14.11.2019 13:00:00 9,5 5,1 8,1 11,4 14,4 13 7 35 19 SW 998,5 31 51 0,0
14.11.2019 12:00:00 7,5 5,1 7,6 11,4 14,4 16 8 40 21 SSW 999,4 42 0 0,0
14.11.2019 11:00:00 7,1 5,2 6,1 11,5 14,4 16 9 36 19 SW 1000,7 41 0 0,0
14.11.2019 10:00:00 6,6 4,9 5,7 11,5 14,4 16 9 38 20 SSW 1001,0 54 0 0,0
14.11.2019 09:00:00 6,6 5,1 5,4 11,6 14,5 12 6 32 17 SSW 1001,5 60 0 0,0
14.11.2019 08:00:00 6,6 5,2 5,5 11,6 14,5 16 8 36 20 SSW 1001,3 60 0 0,0
14.11.2019 07:00:00 7,0 5,6 6,4 11,6 14,5 16 9 26 14 S 1001,7 15 0 2,5
14.11.2019 06:00:00 7,1 5,6 6,3 11,7 14,5 4 2 7 4 E 1002,1 9 0 1,4
14.11.2019 05:00:00 7,5 5,6 6,6 11,7 14,5 5 3 29 15 W 1001,5 7 0 2,0
14.11.2019 04:00:00 8,2 6,3 7,3 11,7 14,5 11 6 29 16 W 1001,5 9 0 0,6
14.11.2019 03:00:00 8,6 6,4 7,4 11,7 14,5 23 13 39 21 WNW 1001,1 24 0 1,4
14.11.2019 02:00:00 9,1 5,3 7,8 11,8 14,5 16 9 31 17 S 1000,2 46 0 0,0
14.11.2019 01:00:00 8,6 5,3 6,9 11,8 14,5 16 9 34 18 SSE 1001,0 60 0 0,0
14.11.2019 00:00:00 8,5 5,8 6,3 11,8 14,5 19 10 29 16 S 1002,2 60 0 0,0
13.11.2019 23:00:00 8,4 5,5 6,8 11,8 14,5 10 6 17 9 SSE 1004,0 34 0 0,0
13.11.2019 22:00:00 8,5 5,4 6,2 11,8 14,5 10 6 22 12 S 1005,4 59 0 0,0
13.11.2019 21:00:00 8,5 4,9 6,8 11,8 14,5 13 7 22 12 S 1006,8 54 0 0,0
13.11.2019 20:00:00 8,9 4,7 7,3 11,8 14,5 12 7 21 12 S 1008,1 55 0 0,0
13.11.2019 19:00:00 8,8 4,6 7,0 11,8 14,5 9 5 16 8 SSW 1009,1 60 0 0,0
13.11.2019 18:00:00 9,6 4,4 7,8 11,8 14,6 8 5 23 12 SSW 1009,5 60 0 0,0
13.11.2019 17:00:00 10,5 3,7 8,6 11,8 14,6 9 5 17 9 W 1010,1 60 0 0,0
13.11.2019 16:00:00 11,2 3,7 12,2 11,8 14,6 10 5 21 12 WNW 1010,3 37 5 0,0
13.11.2019 15:00:00 11,3 2,6 13,0 11,7 14,5 16 9 27 14 W 1010,4 34 27 0,0
13.11.2019 14:00:00 12,3 5,0 17,6 11,7 14,6 14 7 25 14 WNW 1010,5 27 56 0,0
13.11.2019 13:00:00 11,4 6,9 9,6 11,7 14,6 12 6 24 13 W 1010,8 20 52 0,0
13.11.2019 12:00:00 10,2 8,5 10,4 11,7 14,6 13 7 23 12 WNW 1010,7 10 35 0,0
13.11.2019 11:00:00 10,0 9,2 11,5 11,7 14,6 10 5 17 9 NW 1010,4 23 35 0,0
13.11.2019 10:00:00 9,3 8,7 9,2 11,7 14,6 12 7 17 9 NW 1010,1 25 48 0,0
13.11.2019 09:00:00 8,6 8,0 7,6 11,7 14,6 8 5 11 6 WNW 1009,5 19 2 0,0
13.11.2019 08:00:00 8,1 7,5 6,6 11,7 14,6 6 3 9 5 W 1008,4 13 0 0,0
13.11.2019 07:00:00 8,2 7,6 7,6 11,7 14,6 5 3 11 6 WNW 1007,9 17 0 0,0
13.11.2019 06:00:00 8,6 8,0 7,5 11,7 14,6 8 4 11 6 N 1007,2 9 0 0,0
13.11.2019 05:00:00 8,7 7,9 8,0 11,7 14,7 5 3 11 6 WSW 1006,4 25 0 0,0
13.11.2019 04:00:00 8,6 7,8 7,0 11,7 14,7 4 2 7 4 W 1006,4 8 0 0,0
13.11.2019 03:00:00 8,3 7,5 5,5 11,7 14,7 2 1 7 4 NNW 1006,3 3,7 0 0,0
13.11.2019 02:00:00 8,3 7,4 5,2 11,7 14,7 2 1 5 3 N 1006,3 0,6 0 0,0
13.11.2019 01:00:00 8,8 7,9 7,8 11,7 14,7 3 2 11 6 NNW 1006,8 8 0 0,0
13.11.2019 00:00:00 9,2 8,3 7,2 11,7 14,7 7 4 13 7 SW 1007,1 31 0 0,0
12.11.2019 23:00:00 8,7 7,6 6,5 11,7 14,7 4 2 11 6 NNW 1007,7 6 0 0,0
12.11.2019 22:00:00 9,2 8,1 6,8 11,7 14,7 6 3 13 7 W 1008,0 52 0 0,0
12.11.2019 21:00:00 9,6 8,4 7,9 11,7 14,7 5 3 10 6 W 1008,0 49 0 0,0
12.11.2019 20:00:00 9,7 8,5 8,9 11,6 14,7 5 3 15 8 WNW 1008,0 57 0 0,2
12.11.2019 19:00:00 10,0 8,6 8,2 11,6 14,7 6 4 10 5 W 1008,6 16 0 1,4
12.11.2019 18:00:00 9,5 7,8 5,8 11,6 14,7 0 0 8 4 N 1008,9 20 5 0,0
12.11.2019 17:00:00 10,3 8,4 7,7 11,6 14,8 4 2 18 10 WNW 1009,1 60 28 0,0
12.11.2019 16:00:00 10,3 8,2 8,3 11,5 14,7 9 5 41 22 W 1009,7 42 2 5,9
12.11.2019 15:00:00 13,2 9,4 13,0 11,5 14,8 14 8 36 19 WSW 1009,9 28 12 0,2
12.11.2019 14:00:00 13,7 8,5 16,4 11,4 14,8 16 9 34 19 WSW 1010,2 31 36 0,0
12.11.2019 13:00:00 13,5 9,2 15,4 11,4 14,8 14 8 29 15 WSW 1011,3 36 57 0,0
12.11.2019 12:00:00 12,4 9,8 12,3 11,4 14,8 16 8 30 16 WSW 1012,4 53 60 0,0
12.11.2019 11:00:00 10,7 9,3 10,4 11,4 14,8 14 7 27 15 W 1013,0 60 13 0,0
12.11.2019 10:00:00 9,5 8,4 8,3 11,4 14,8 13 7 31 17 WSW 1013,1 19 23 0,0
12.11.2019 09:00:00 8,1 7,0 6,3 11,4 14,8 9 5 19 10 W 1013,5 29 9 0,0
12.11.2019 08:00:00 7,3 6,2 1,9 11,4 14,8 10 5 17 9 WSW 1013,5 14 0 0,0
12.11.2019 07:00:00 6,1 4,9 1,4 11,4 14,8 2 1 12 6 NW 1013,9 28 0 0,0
12.11.2019 06:00:00 7,1 6,0 3,6 11,5 14,8 6 3 16 9 WSW 1014,3 20 0 0,2
12.11.2019 05:00:00 6,6 5,4 4,4 11,5 14,8 5 3 14 8 WNW 1014,5 19 0 0,0
12.11.2019 04:00:00 7,3 5,9 5,9 11,5 14,8 9 5 36 19 WNW 1014,8 28 0 0,4
12.11.2019 03:00:00 7,1 5,6 4,3 11,5 14,9 6 3 15 8 W 1015,2 33 0 0,0
12.11.2019 02:00:00 6,7 5,0 3,9 11,5 14,9 5 3 15 8 WNW 1015,7 33 0 0,0
12.11.2019 01:00:00 6,7 4,9 2,5 11,5 14,9 7 4 13 7 W 1016,4 31 0 0,0
12.11.2019 00:00:00 7,6 5,4 4,5 11,5 14,9 6 4 13 7 W 1017,0 29 0 0,0
11.11.2019 23:00:00 8,2 6,0 5,8 11,6 14,9 8 4 16 8 W 1017,1 28 0 0,0
11.11.2019 22:00:00 8,3 5,9 4,5 11,5 14,9 11 6 21 11 W 1017,0 27 0 0,0
11.11.2019 21:00:00 8,0 4,9 5,1 11,5 14,9 7 4 22 12 W 1016,4 20 0 0,0
11.11.2019 20:00:00 8,8 5,5 6,1 11,5 14,9 13 7 30 16 W 1016,2 30 0 0,0
11.11.2019 19:00:00 8,8 6,2 6,5 11,5 15,0 22 12 38 20 WNW 1015,2 35 0 0,0
11.11.2019 18:00:00 9,2 7,0 7,6 11,5 15,0 23 13 48 26 WNW 1013,6 30 0 0,0
11.11.2019 17:00:00 10,5 8,6 9,8 11,4 15,0 25 14 42 23 W 1012,1 56 0 1,0
11.11.2019 16:00:00 11,6 8,4 11,0 11,4 15,0 6 3 21 11 SW 1011,0 5 0 0,0
11.11.2019 15:00:00 12,1 8,8 12,5 11,4 15,0 13 7 23 12 WSW 1011,0 44 0 0,0
11.11.2019 14:00:00 12,3 10,9 13,4 11,4 15,0 8 4 17 9 SW 1011,2 46 5 0,0
11.11.2019 13:00:00 10,5 9,7 11,7 11,4 15,0 9 5 16 8 E 1012,3 39 3 0,0
11.11.2019 12:00:00 9,1 8,5 8,9 11,3 15,0 7 4 13 7 E 1013,3 51 10 0,0
11.11.2019 11:00:00 7,0 6,6 7,7 11,4 15,0 9 5 16 9 E 1014,2 34 0 0,0
11.11.2019 10:00:00 5,7 5,3 5,2 11,4 15,0 11 6 16 9 E 1014,9 26 2 0,0
11.11.2019 09:00:00 4,4 3,8 4,1 11,4 15,0 13 7 18 10 ESE 1015,4 20 0 0,0
11.11.2019 08:00:00 3,9 3,3 3,6 11,5 15,0 8 4 19 10 ESE 1015,7 11 0 0,0
11.11.2019 07:00:00 3,5 2,9 3,1 11,5 15,1 14 7 18 10 E 1015,6 0,5 0 0,0
11.11.2019 06:00:00 3,0 2,4 2,8 11,6 15,1 15 8 21 12 ESE 1015,9 0,3 0 0,0
11.11.2019 05:00:00 3,1 2,4 0,9 11,6 15,1 13 7 17 9 E 1016,2 0,4 0 0,0
11.11.2019 04:00:00 2,2 1,5 -0,2 11,7 15,1 7 4 8 5 E 1016,7 0,1 0 0,0
11.11.2019 03:00:00 2,9 2,0 1,0 11,7 15,1 6 3 13 7 E 1017,2 0,4 0 0,0
11.11.2019 02:00:00 3,4 2,5 -0,2 11,8 15,1 11 6 16 9 ESE 1017,4 8 0 0,0
11.11.2019 01:00:00 3,4 2,4 -0,4 11,9 15,1 4 2 13 7 SE 1017,1 7 0 0,0
11.11.2019 00:00:00 4,2 3,0 -0,9 11,9 15,1 10 5 19 10 WNW 1017,3 52 0 0,0
10.11.2019 23:00:00 3,6 2,4 -0,7 12,0 15,1 4 2 11 6 ESE 1017,0 8 0 0,0
10.11.2019 22:00:00 4,6 3,3 -0,2 12,0 15,2 6 3 11 6 ESE 1017,2 15 0 0,0
10.11.2019 21:00:00 5,3 3,6 -0,3 12,0 15,1 5 3 9 5 W 1017,2 30 0 0,0
10.11.2019 20:00:00 6,3 4,3 0,6 12,0 15,1 4 2 14 8 WNW 1017,0 44 0 0,0
10.11.2019 19:00:00 7,6 5,1 4,6 11,9 15,2 9 5 16 9 W 1016,2 60 0 0,0
10.11.2019 18:00:00 8,7 5,6 5,8 11,9 15,2 8 4 20 11 W 1015,3 58 13 0,2
10.11.2019 17:00:00 10,3 6,6 7,0 11,9 15,2 11 6 19 10 W 1014,4 20 40 0,0
10.11.2019 16:00:00 9,3 5,7 8,6 11,9 15,2 9 5 17 9 WNW 1013,5 47 0 0,6
10.11.2019 15:00:00 11,2 5,1 11,1 11,8 15,2 10 5 19 11 W 1012,9 60 21 0,0
10.11.2019 14:00:00 11,6 5,9 11,7 11,8 15,2 13 7 25 13 WSW 1012,9 43 23 0,0
10.11.2019 13:00:00 10,8 5,3 13,0 11,8 15,2 11 6 25 13 W 1013,1 57 16 0,0
10.11.2019 12:00:00 10,6 5,1 13,9 11,8 15,2 12 7 26 14 W 1013,5 57 50 0,0
10.11.2019 11:00:00 9,9 6,4 11,8 11,8 15,2 11 6 20 11 WSW 1013,4 28 57 0,0
10.11.2019 10:00:00 8,4 6,5 6,3 11,8 15,2 11 6 24 13 W 1013,1 53 60 0,0
10.11.2019 09:00:00 6,8 5,3 2,4 11,9 15,3 10 6 18 10 WSW 1012,8 43 43 0,0
10.11.2019 08:00:00 5,0 3,2 3,0 11,9 15,3 6 3 23 12 WNW 1012,6 52 0 0,0
10.11.2019 07:00:00 5,9 3,9 3,5 12,0 15,3 5 3 24 13 W 1012,5 60 0 0,0
10.11.2019 06:00:00 6,5 4,5 3,7 12,0 15,3 10 6 23 12 WSW 1012,5 60 0 0,0
10.11.2019 05:00:00 6,2 3,9 2,6 12,0 15,3 9 5 17 9 WSW 1012,3 60 0 0,0
10.11.2019 04:00:00 6,8 4,1 4,2 12,0 15,3 9 5 21 11 W 1012,1 60 0 0,0
10.11.2019 03:00:00 7,5 4,8 5,4 12,1 15,3 14 8 28 15 WSW 1012,1 60 0 0,0
10.11.2019 02:00:00 7,9 5,0 4,8 12,1 15,3 18 10 29 15 W 1012,6 58 0 0,0
10.11.2019 01:00:00 8,1 5,4 5,1 12,1 15,3 10 6 20 11 W 1011,8 50 0 0,0
10.11.2019 00:00:00 9,4 6,8 6,8 12,1 15,3 14 8 33 18 W 1011,5 31 0 0,0
09.11.2019 23:00:00 10,3 8,7 8,7 12,1 15,4 15 8 33 18 W 1010,9 28 0 0,0
09.11.2019 22:00:00 10,4 9,0 9,0 12,0 15,4 14 7 27 15 W 1010,3 34 0 0,2
09.11.2019 21:00:00 10,4 9,0 9,0 12,0 15,4 16 9 27 14 W 1009,1 47 0 0,2
09.11.2019 20:00:00 10,3 8,7 9,1 12,0 15,4 13 7 28 15 WSW 1009,4 11 0 0,4
09.11.2019 19:00:00 10,0 7,9 8,9 12,0 15,4 5 3 18 10 SE 1009,3 6 0 1,2
09.11.2019 18:00:00 10,4 8,0 9,0 11,9 15,4 5 3 15 8 SSW 1009,8 58 0 0,0
09.11.2019 17:00:00 10,5 8,3 10,3 11,9 15,4 6 3 28 15 SW 1010,8 56 0 0,0
09.11.2019 16:00:00 10,8 7,1 10,7 11,8 15,4 18 10 39 21 SW 1011,4 13 0 0,0

tt = Température de l'air
td = dewpoint
tt 5cm = Température de l'air 5cm
tt -20cm = Température de l'air -20cm
tt -100cm = Température de l'air -100cm
ff = Vitesse du vent
fx = gusts
dd = Direction du vent
ppp = reduced air pressure
vv = visibility
sd = Ensoleillement
rr = Quantités de précipitations

stations d'obs. à proximité